TimeCDT,TemperatureF,Dew PointF,Humidity,Sea Level PressureIn,VisibilityMPH,Wind Direction,Wind SpeedMPH,Gust SpeedMPH,PrecipitationIn,Events,Conditions,WindDirDegrees,DateUTC
12:58 AM,68.7,64.2,86,30.06,10.0,ENE,4.6,-,N/A,,Clear,60,2013-09-20 05:58:00
1:58 AM,68.0,64.0,87,30.06,10.0,ENE,4.6,-,N/A,,Clear,60,2013-09-20 06:58:00
2:58 AM,68.5,63.7,84,30.04,10.0,East,3.5,-,N/A,,Clear,80,2013-09-20 07:58:00
3:58 AM,67.6,64.0,88,30.04,10.0,ENE,4.6,-,N/A,,Clear,60,2013-09-20 08:58:00
4:58 AM,66.9,64.2,91,30.04,10.0,ENE,4.6,-,N/A,,Clear,70,2013-09-20 09:58:00
5:58 AM,66.4,64.4,93,30.04,10.0,ENE,5.8,-,N/A,,Clear,60,2013-09-20 10:58:00
6:58 AM,66.0,64.2,94,30.04,10.0,NE,3.5,-,N/A,,Clear,40,2013-09-20 11:58:00
7:58 AM,69.1,66.7,92,30.06,10.0,East,5.8,-,N/A,,Clear,80,2013-09-20 12:58:00
8:58 AM,75.7,69.6,81,30.05,10.0,ESE,5.8,-,N/A,,Clear,110,2013-09-20 13:58:00
9:58 AM,81.1,71.2,72,30.05,10.0,SE,5.8,-,N/A,,Clear,130,2013-09-20 14:58:00
10:58 AM,84.2,70.3,63,30.04,10.0,Variable,4.6,-,N/A,,Clear,0,2013-09-20 15:58:00
11:58 AM,86.5,69.4,57,30.02,10.0,Variable,4.6,-,N/A,,Partly Cloudy,0,2013-09-20 16:58:00
12:58 PM,88.2,68.4,52,29.99,10.0,Variable,6.9,-,N/A,,Partly Cloudy,0,2013-09-20 17:58:00
1:58 PM,88.7,68.7,51,29.96,10.0,Variable,3.5,-,N/A,,Partly Cloudy,0,2013-09-20 18:58:00
2:58 PM,90.0,68.9,50,29.93,10.0,Variable,6.9,-,N/A,,Scattered Clouds,0,2013-09-20 19:58:00
3:58 PM,90.1,68.0,48,29.91,10.0,Variable,3.5,-,N/A,,Clear,0,2013-09-20 20:58:00
4:58 PM,88.0,68.7,53,29.91,10.0,Variable,4.6,-,N/A,,Clear,0,2013-09-20 21:58:00
5:58 PM,85.6,69.3,58,29.90,10.0,Variable,3.5,-,N/A,,Clear,0,2013-09-20 22:58:00
6:58 PM,80.2,72.1,76,29.92,10.0,SSW,6.9,-,N/A,,Partly Cloudy,210,2013-09-20 23:58:00
7:58 PM,77.7,72.3,83,29.93,10.0,South,3.5,-,N/A,,Clear,180,2013-09-21 00:58:00
8:58 PM,77.4,72.9,86,29.94,10.0,SE,5.8,-,N/A,,Mostly Cloudy,140,2013-09-21 01:58:00
9:23 PM,77.0,71.6,83,29.94,10.0,SE,9.2,-,N/A,,Mostly Cloudy,140,2013-09-21 02:23:00
9:28 PM,77.0,71.6,83,29.94,10.0,SE,8.1,-,N/A,,Mostly Cloudy,140,2013-09-21 02:28:00
9:38 PM,77.0,71.6,83,29.94,10.0,SSE,9.2,-,N/A,,Mostly Cloudy,160,2013-09-21 02:38:00
9:43 PM,77.0,71.6,83,29.94,10.0,SSE,9.2,-,N/A,,Mostly Cloudy,150,2013-09-21 02:43:00
9:58 PM,76.3,71.8,86,29.93,10.0,SSE,9.2,-,N/A,,Scattered Clouds,150,2013-09-21 02:58:00
10:58 PM,75.2,71.8,89,29.92,10.0,South,5.8,-,N/A,,Clear,170,2013-09-21 03:58:00
11:58 PM,74.3,71.6,91,29.92,10.0,SSE,4.6,-,N/A,,Clear,150,2013-09-21 04:58:00